GSAT-N2 (GSAT-20)

Last updated on Tue Sep 22 2026 00:03:16 GMT+0000 (Coordinated Universal Time)

1 62028U 24214A 26264.43126375 -.00000025 00000+0 00000+0 0 9998 2 62028 0.0172 118.2819 0001335 247.3513 218.0019 1.00275475 6869
UTC large
Height (km)
Speed (km/s)
/
Latitude / Longitude
Inclination (degrees)
Orbital Period (minutes)
Azimuth
Elevation
Range (km)
Doppler Factor

Next 0 passes for location: London (51.5072 / 0.1276)

No passes found over London.
GSAT-N2 (GSAT-20)